Terminal Aerodrome Forecast
Issued by NWS

Home | Current Version | Previous Version | Text Only | Print | Product List | Glossary On
Versions: 1 2 3 4 5 6 7 8 9 10 11 12 13 14 15 16 17 18 19 20 21 22 23 24 25 26 27 28 29 30 31 32 33 34
000
FTUS45 KREV 212323
TAFTVL
TAF
KTVL 212323Z 2200/2224 19011G20KT 5SM -SHSN SCT020 OVC030
     FM220500 18014G26KT 1/2SM SN BKN008 OVC015 WS020/24045KT=

USA.gov is the U.S. government's official web portal to all federal, state and local government web resources and services.